KC3ZFY-W Weather Reports


Display with metric or nautical units.
time (UTC)temp
F
wind
direction
speed
MPH
gust
MPH
rain 1hr
in
rain 24hr
in
rain mn
in
humidity
%
barometer
mb
20260505025009 62 200 0.0 2.0 0.00 0.00 0.00 53 1011.0
20260505024505 63 16 0.0 0.0 0.00 0.00 0.00 52 1011.0
20260505024002 63 15 0.0 0.0 0.00 0.00 0.00 52 1011.0
20260505023503 63 15 0.0 1.0 0.00 0.00 0.00 52 1010.9
20260505023012 63 15 0.0 1.0 0.00 0.00 0.00 51 1011.0
20260505022504 64 164 0.0 1.0 0.00 0.00 0.00 51 1010.8
20260505022004 64 225 0.0 0.0 0.00 0.00 0.00 50 1010.9
20260505021516 64 225 0.0 0.0 0.00 0.00 0.00 50 1010.9
20260505021004 65 204 0.0 0.0 0.00 0.00 0.00 49 1010.9
20260505020504 65 204 0.0 0.0 0.00 0.00 0.00 48 1010.9
20260505020018 65 215 0.0 0.0 0.00 0.00 0.00 49 1010.9
20260505015508 65 194 0.0 0.0 0.00 0.00 0.00 48 1010.7
20260505015007 66 194 0.0 2.0 0.00 0.00 0.00 47 1010.7
20260505014523 66 181 0.0 2.0 0.00 0.00 0.00 47 1010.7
20260505014007 66 172 0.0 0.0 0.00 0.00 0.00 46 1010.6
20260505013503 67 172 0.0 2.0 0.00 0.00 0.00 45 1010.6
20260505013008 67 199 0.0 2.0 0.00 0.00 0.00 45 1010.6
20260505012503 67 173 0.0 2.0 0.00 0.00 0.00 44 1010.6
20260505012004 68 225 0.0 3.0 0.00 0.00 0.00 44 1010.6
20260505011511 68 214 0.0 3.0 0.00 0.00 0.00 44 1010.5
20260505011008 68 252 0.0 3.0 0.00 0.00 0.00 43 1010.5
20260505010505 68 225 0.0 2.0 0.00 0.00 0.00 42 1010.4
20260505010029 69 198 0.0 2.0 0.00 0.00 0.00 42 1010.4
20260505005506 69 188 0.0 2.0 0.00 0.00 0.00 41 1010.3
20260505005006 69 215 0.0 3.0 0.00 0.00 0.00 41 1010.3
20260505004521 70 178 0.0 3.0 0.00 0.00 0.00 43 1010.2
20260505004009 70 166 0.0 3.0 0.00 0.00 0.00 40 1010.2
20260505003510 70 214 0.0 4.0 0.00 0.00 0.00 39 1010.2
20260505003025 70 153 0.0 4.0 0.00 0.00 0.00 39 1010.2
20260505002504 71 186 0.0 2.0 0.00 0.00 0.00 39 1010.2
20260505002004 71 184 0.0 4.0 0.00 0.00 0.00 38 1010.1
20260505001510 71 205 1.0 4.0 0.00 0.00 0.00 38 1010.2
20260505001004 71 171 0.0 6.0 0.00 0.00 0.00 37 1010.2
20260505000504 72 292 0.0 6.0 0.00 0.00 0.00 38 1010.2
20260505000032 72 192 0.0 5.0 0.00 0.00 0.00 37 1010.1
20260504235506 72 244 2.0 5.0 0.00 0.00 0.00 36 1010.0
20260504235006 72 163 1.0 5.0 0.00 0.00 0.00 36 1010.0
20260504234518 73 216 1.0 5.0 0.00 0.00 0.00 35 1010.1
20260504234004 73 202 1.0 4.0 0.00 0.00 0.00 35 1010.0
20260504233509 73 221 1.0 5.0 0.00 0.00 0.00 36 1010.0
20260504233020 73 204 0.0 6.0 0.00 0.00 0.00 35 1009.9
20260504232509 73 234 3.0 6.0 0.00 0.00 0.00 34 1009.8
20260504232011 74 240 1.0 6.0 0.00 0.00 0.00 34 1009.8
20260504231524 74 283 1.0 7.0 0.00 0.00 0.00 34 1009.8
20260504231003 74 202 2.0 7.0 0.00 0.00 0.00 34 1009.8
20260504230504 75 344 1.0 9.0 0.00 0.00 0.00 34 1009.9
20260504230011 75 234 1.0 10.0 0.00 0.00 0.00 33 1010.0
20260504225504 75 38 1.0 12.0 0.00 0.00 0.00 33 1009.9
20260504225002 75 217 3.0 11.0 0.00 0.00 0.00 33 1009.9
20260504224516 76 279 2.0 10.0 0.00 0.00 0.00 32 1009.8
20260504224004 76 102 2.0 10.0 0.00 0.00 0.00 31 1009.8
20260504223507 77 279 1.0 10.0 0.00 0.00 0.00 32 1009.8
20260504223020 77 267 3.0 10.0 0.00 0.00 0.00 31 1009.9
20260504222508 77 168 4.0 11.0 0.00 0.00 0.00 31 1009.8
20260504222010 77 285 2.0 11.0 0.00 0.00 0.00 31 1009.8
20260504221539 78 311 2.0 11.0 0.00 0.00 0.00 30 1009.7
20260504221007 78 177 3.0 11.0 0.00 0.00 0.00 30 1009.7
20260504220511 78 261 2.0 9.0 0.00 0.00 0.00 30 1009.6
20260504220008 78 276 2.0 9.0 0.00 0.00 0.00 30 1009.6
20260504215507 78 249 3.0 10.0 0.00 0.00 0.00 29 1009.7
20260504215009 78 292 4.0 10.0 0.00 0.00 0.00 29 1009.6
20260504214512 78 229 4.0 9.0 0.00 0.00 0.00 28 1009.8
20260504214007 78 161 4.0 11.0 0.00 0.00 0.00 29 1009.7
20260504213504 78 254 3.0 11.0 0.00 0.00 0.00 28 1009.7
20260504213019 78 282 3.0 11.0 0.00 0.00 0.00 29 1009.8
20260504212506 79 246 3.0 12.0 0.00 0.00 0.00 28 1009.8
20260504212010 79 119 2.0 12.0 0.00 0.00 0.00 29 1009.6
20260504211523 79 227 2.0 10.0 0.00 0.00 0.00 28 1009.8
20260504211009 79 319 1.0 9.0 0.00 0.00 0.00 28 1009.8
20260504210508 79 289 3.0 9.0 0.00 0.00 0.00 28 1009.9
20260504210028 79 226 3.0 9.0 0.00 0.00 0.00 29 1009.9
20260504205507 79 304 2.0 9.0 0.00 0.00 0.00 28 1009.9
20260504205003 79 138 5.0 9.0 0.00 0.00 0.00 28 1009.9
20260504204511 79 350 1.0 17.0 0.00 0.00 0.00 28 1009.9
20260504204004 79 236 3.0 17.0 0.00 0.00 0.00 28 1010.1
20260504203505 80 188 4.0 10.0 0.00 0.00 0.00 27 1010.0
20260504203018 80 169 2.0 11.0 0.00 0.00 0.00 29 1010.2
20260504202507 79 207 0.0 17.0 0.00 0.00 0.00 28 1010.2
20260504202008 80 179 7.0 17.0 0.00 0.00 0.00 26 1010.2
20260504201524 80 157 2.0 14.0 0.00 0.00 0.00 28 1010.2
20260504201011 80 269 3.0 14.0 0.00 0.00 0.00 28 1010.2
20260504200513 80 229 3.0 11.0 0.00 0.00 0.00 28 1010.4
20260504200026 80 146 3.0 6.0 0.00 0.00 0.00 27 1010.4
20260504195508 80 251 2.0 4.0 0.00 0.00 0.00 28 1010.4
20260504195013 80 20 2.0 10.0 0.00 0.00 0.00 28 1010.6
20260504194531 79 225 4.0 10.0 0.00 0.00 0.00 28 1010.6
20260504194006 79 63 2.0 10.0 0.00 0.00 0.00 29 1010.7
20260504193506 79 205 2.0 10.0 0.00 0.00 0.00 28 1010.8
20260504193014 78 268 3.0 7.0 0.00 0.00 0.00 29 1010.8
20260504192506 78 246 3.0 13.0 0.00 0.00 0.00 30 1010.9
20260504192012 77 279 4.0 17.0 0.00 0.00 0.00 29 1011.0
20260504191532 77 269 4.0 17.0 0.00 0.00 0.00 29 1011.1
20260504191008 78 287 6.0 17.0 0.00 0.00 0.00 28 1011.1
20260504190504 77 239 4.0 9.0 0.00 0.00 0.00 30 1011.2
20260504190006 77 198 4.0 11.0 0.00 0.00 0.00 29 1011.1
20260504185503 77 255 5.0 11.0 0.00 0.00 0.00 28 1011.3
20260504185004 77 286 4.0 16.0 0.00 0.00 0.00 28 1011.5
20260504184516 77 249 7.0 16.0 0.00 0.00 0.00 28 1011.4
20260504184006 77 268 4.0 12.0 0.00 0.00 0.00 29 1011.5
20260504183505 77 306 2.0 12.0 0.00 0.00 0.00 30 1011.5
20260504183014 77 276 5.0 17.0 0.00 0.00 0.00 30 1011.7
20260504182506 76 304 4.0 21.0 0.00 0.00 0.00 30 1011.9
20260504182007 77 260 7.0 21.0 0.00 0.00 0.00 30 1012.0
20260504181522 78 294 3.0 9.0 0.00 0.00 0.00 30 1012.0
20260504180959 77 219 4.0 11.0 0.00 0.00 0.00 29 1012.1
20260504180504 78 213 5.0 11.0 0.00 0.00 0.00 29 1012.1
20260504180007 77 244 2.0 10.0 0.00 0.00 0.00 31 1012.2
20260504175504 76 105 2.0 13.0 0.00 0.00 0.00 31 1012.2
20260504175003 76 271 5.0 13.0 0.00 0.00 0.00 29 1012.2
20260504174508 77 292 3.0 13.0 0.00 0.00 0.00 28 1012.2
20260504174004 77 224 3.0 9.0 0.00 0.00 0.00 27 1012.4
20260504173504 77 292 4.0 15.0 0.00 0.00 0.00 29 1012.4
20260504173011 77 19 2.0 15.0 0.00 0.00 0.00 30 1012.5
20260504172505 76 260 3.0 15.0 0.00 0.00 0.00 29 1012.6
20260504172006 76 236 4.0 11.0 0.00 0.00 0.00 28 1012.7
20260504171525 76 194 4.0 11.0 0.00 0.00 0.00 29 1012.7
20260504171006 76 186 3.0 9.0 0.00 0.00 0.00 28 1012.7
20260504170506 75 223 2.0 11.0 0.00 0.00 0.00 29 1012.7
20260504151007 70 165 1.0 10.0 0.00 0.00 0.00 33 1013.8
20260504150506 70 240 2.0 10.0 0.00 0.00 0.00 33 1013.9
20260504141006 65 327 2.0 7.0 0.00 0.00 0.00 41 1014.3
20260504140507 64 194 3.0 8.0 0.00 0.00 0.00 43 1014.4
20260504130506 59 251 3.0 10.0 0.00 0.00 0.00 49 1014.6
20260504110506 48 186 0.0 2.0 0.00 0.00 0.00 71 1015.4
20260504100503 48 185 0.0 0.0 0.00 0.00 0.00 73 1015.2
20260504082004 45 263 0.0 2.0 0.00 0.00 0.00 80 1015.5
20260504081525 45 262 0.0 2.0 0.00 0.00 0.00 81 1015.5
20260504081013 44 231 0.0 1.0 0.00 0.00 0.00 81 1015.5
20260504080508 44 235 0.0 0.0 0.00 0.00 0.00 81 1015.4
20260504050503 41 224 0.0 0.0 0.00 0.00 0.00 80 1015.8
20260504050022 41 224 0.0 0.0 0.00 0.00 0.00 80 1015.8
20260504045507 40 224 0.0 0.0 0.00 0.00 0.00 79 1015.7
20260504045009 41 224 0.0 0.0 0.00 0.00 0.00 79 1015.7
20260504044522 41 224 0.0 0.0 0.00 0.00 0.00 79 1015.8
20260504044010 41 224 0.0 0.0 0.00 0.00 0.00 79 1015.8
20260504043509 41 224 0.0 0.0 0.00 0.00 0.00 78 1015.7
20260504043024 41 224 0.0 0.0 0.00 0.00 0.00 78 1015.6
20260504042508 41 224 0.0 0.0 0.00 0.00 0.00 78 1015.6
20260504042010 41 224 0.0 0.0 0.00 0.00 0.00 77 1015.6
20260504041527 41 224 0.0 0.0 0.00 0.00 0.00 75 1015.7
20260504041004 41 224 0.0 0.0 0.00 0.00 0.00 75 1015.7
20260504040503 41 224 0.0 0.0 0.00 0.00 0.00 75 1015.7
20260504040035 41 224 0.0 0.0 0.00 0.00 0.00 75 1015.7
20260504035508 42 224 0.0 0.0 0.00 0.00 0.00 75 1015.7
20260504035008 42 225 0.0 0.0 0.00 0.00 0.00 75 1015.6
20260504034523 42 224 0.0 0.0 0.00 0.00 0.00 75 1015.6
20260504034004 42 224 0.0 0.0 0.00 0.00 0.00 74 1015.6
20260504033508 42 224 0.0 0.0 0.00 0.00 0.00 74 1015.5
20260504033026 42 224 0.0 0.0 0.00 0.00 0.00 74 1015.6
20260504032503 42 225 0.0 0.0 0.00 0.00 0.00 72 1015.5
20260504032005 43 224 0.0 0.0 0.00 0.00 0.00 71 1015.5
20260504031510 43 224 0.0 0.0 0.00 0.00 0.00 71 1015.5
20260504031004 43 224 0.0 0.0 0.00 0.00 0.00 70 1015.4
20260504030503 43 224 0.0 0.0 0.00 0.00 0.00 70 1015.4
20260504030013 43 224 0.0 0.0 0.00 0.00 0.00 69 1015.3
20260504025504 44 224 0.0 0.0 0.00 0.00 0.00 69 1015.4